Tracking 35237 objects as of 6-Sep-2026
HD Live streaming from Space Station
objects crossing your sky now

STARLINK-5336

Track STARLINK-5336 now!
10-day predictions
STARLINK-5336 is classified as:


NORAD ID: 57138
Int'l Code: 2023-090AP
Launch date: June 23, 2023
Source: United States (US)
Launch site: AIR FORCE EASTERN TEST RANGE (AFETR)
Your satellite tracking list
Your tracking list is empty




NASA's NSSDC Master Catalog

Two Line Element Set (TLE):
1 57138U 23090AP  26248.29454932  .00000391  00000-0  23737-4 0  9997
2 57138  43.0050 328.8597 0001911 288.1014  71.9630 15.27577074177822
Source of the keplerian elements: AFSPC